{"data":{"norad_id":67270,"intl_designator":"2025-313Y","name":"SITRO-TD-3","alt_names":[],"object_type":"PAYLOAD","status":"ACTIVE","operator":null,"country":"CIS","launch_date":"2025-12-28","launch_site_code":"VOSTO","launch_vehicle":null,"mission":null,"orbit_class":"UNKNOWN","rcs_meters":null,"size_class":null,"mass_kg":null,"dimensions":null,"purposes":[],"wikipedia_slug":null,"has_3d_model":false,"image_url":null,"decayed_at":null,"tle_current":{"epoch":"2026-09-20T10:38:31.172640Z","epoch_age_seconds":108026,"freshness":"FRESH","line1":"1 67270U 25313Y   26263.44341635  .00005706  00000+0  23205-3 0  9997","line2":"2 67270  97.3862 336.8134 0014590  34.6448 325.5737 15.24829823 40465","mean_motion":15.24829823,"eccentricity":0.001459,"inclination_deg":97.3862,"raan_deg":336.8134,"arg_perigee_deg":34.6448,"mean_anomaly_deg":325.5737,"bstar":0.00023205,"rev_number":4046,"period_min":94.436767846454,"perigee_km":481.27398661444,"apogee_km":501.31899353848,"semimajor_km":6869.4334900765,"source":"CELESTRAK","updated_at":"2026-09-21T09:00:16.543341Z"}}}